N1DNE Weather Reports


time (UTC)temp
C
wind
direction
speed
KPH
gust
KPH
rain 1hr
cm
rain 24hr
cm
rain mn
cm
humidity
%
barometer
mb
20260506201537 15 170 0.0 3.2 0.10 0.25 0.25 94 1004.8
20260506200056 15 170 1.6 6.4 0.08 0.23 0.23 94 1004.8
20260506195542 15 171 1.6 8.0 0.05 0.20 0.20 94 1005.0
20260506194054 15 170 0.0 3.2 0.03 0.18 0.18 94 1005.0
20260506193054 15 170 0.0 6.4 0.05 0.18 0.18 94 1005.1
20260506192054 15 171 1.6 8.0 0.05 0.15 0.15 94 1005.2
20260506191055 15 171 1.6 9.7 0.08 0.15 0.15 94 1005.4
20260506190551 15 170 1.6 9.7 0.08 0.15 0.15 93 1005.3
20260506190018 15 188 1.6 9.7 0.08 0.15 0.15 93 1005.5
20260506184054 15 278 1.6 8.0 0.10 0.15 0.15 93 1005.5
20260506183529 15 182 1.6 9.7 0.10 0.13 0.13 93 1005.7
20260506182533 15 180 1.6 6.4 0.08 0.10 0.10 92 1005.8
20260506181049 15 234 1.6 6.4 0.08 0.08 0.10 92 1005.8
20260506181003 15 189 1.6 3.2 0.08 0.08 0.08 91 1005.7
20260506175049 16 189 1.6 6.4 0.08 0.08 0.08 90 1005.8
20260506174047 16 194 1.6 6.4 0.05 0.05 0.05 90 1005.8
20260506173048 16 170 1.6 8.0 0.03 0.03 0.03 88 1005.9
20260506172536 17 170 1.6 11.3 0.03 0.03 0.03 86 1006.4
20260506171527 17 170 1.6 6.4 0.00 0.00 0.00 84 1006.8
20260506170046 18 170 1.6 9.7 0.00 0.00 0.00 83 1006.9
20260506165043 18 166 0.0 4.8 0.00 0.00 0.00 81 1006.8
20260506165002 18 158 3.2 12.9 0.00 0.00 0.00 78 1006.9
20260506163043 19 175 3.2 12.9 0.00 0.00 0.00 77 1006.8
20260506162519 19 165 3.2 9.7 0.00 0.00 0.00 77 1006.7
20260506161520 19 171 1.6 9.7 0.00 0.00 0.00 76 1006.7
20260506160958 19 189 1.6 8.0 0.00 0.00 0.00 76 1006.8
20260506155524 19 189 1.6 6.4 0.00 0.00 0.00 75 1006.9
20260506154045 19 189 1.6 9.7 0.00 0.00 0.00 75 1007.2
20260506153037 19 171 3.2 12.9 0.00 0.00 0.00 75 1007.1
20260506152521 19 173 1.6 9.7 0.00 0.00 0.00 75 1007.1
20260506151523 19 167 3.2 11.3 0.00 0.00 0.00 76 1007.1
20260506150035 19 171 1.6 9.7 0.00 0.00 0.00 76 1007.0
20260506145036 19 171 3.2 12.9 0.00 0.00 0.00 77 1007.2
20260506144035 18 190 1.6 4.8 0.00 0.00 0.00 79 1007.1
20260506143035 18 190 0.0 3.2 0.00 0.00 0.00 79 1007.4
20260506142037 18 190 1.6 6.4 0.00 0.00 0.00 80 1007.3
20260506141038 18 235 3.2 11.3 0.00 0.00 0.00 80 1007.4
20260506140033 18 169 3.2 11.3 0.00 0.00 0.00 82 1007.4
20260506135526 17 190 1.6 12.9 0.00 0.00 0.00 82 1007.5
20260506134033 17 182 1.6 8.0 0.00 0.00 0.00 83 1007.2
20260506133034 17 182 1.6 6.4 0.00 0.00 0.00 84 1007.2
20260506132034 17 182 1.6 9.7 0.00 0.00 0.00 86 1007.2
20260506131032 16 186 0.0 4.8 0.00 0.00 0.00 87 1007.5
20260506130034 16 186 0.0 3.2 0.00 0.00 0.00 88 1007.5
20260506125520 16 186 0.0 3.2 0.00 0.00 0.00 88 1007.7
20260506124030 15 186 1.6 6.4 0.00 0.00 0.00 88 1007.8
20260506123031 15 186 1.6 9.7 0.00 0.00 0.00 88 1008.1
20260506122519 15 188 1.6 6.4 0.00 0.00 0.00 89 1008.1
20260506121032 15 188 1.6 11.3 0.00 0.00 0.00 89 1008.0
20260506120031 15 177 1.6 6.4 0.00 0.00 0.00 89 1007.9
20260506115032 15 177 0.0 3.2 0.00 0.00 0.00 90 1007.9
20260506114514 14 177 1.6 8.0 0.00 0.00 0.00 90 1007.9
20260506113032 14 177 1.6 14.5 0.00 0.00 0.00 90 1008.0
20260506112523 14 188 0.0 4.8 0.00 0.00 0.00 91 1007.9
20260506111505 13 188 0.0 4.8 0.00 0.00 0.00 91 1008.0
20260506110024 13 188 1.6 6.4 0.00 0.00 0.00 91 1008.3
20260506105023 13 188 1.6 4.8 0.00 0.00 0.00 91 1008.1
20260506104509 13 188 1.6 8.0 0.00 0.00 0.00 91 1007.9
20260506103506 13 188 0.0 3.2 0.00 0.00 0.00 92 1008.2
20260506102027 13 188 0.0 3.2 0.00 0.00 0.00 92 1008.0
20260506101025 13 188 0.0 3.2 0.00 0.00 0.00 91 1007.9
20260506100022 13 188 1.6 4.8 0.00 0.00 0.00 91 1007.8
20260506095024 13 188 1.6 6.4 0.00 0.00 0.00 91 1007.9
20260506094024 13 188 0.0 1.6 0.00 0.00 0.00 91 1007.8
20260506093023 13 188 1.6 4.8 0.00 0.00 0.00 91 1007.7
20260506092024 13 188 0.0 1.6 0.00 0.00 0.00 90 1007.8
20260506091023 13 188 0.0 3.2 0.00 0.00 0.00 90 1007.9
20260506090024 13 188 0.0 4.8 0.00 0.00 0.00 90 1007.9
20260506085453 13 188 0.0 1.6 0.00 0.00 0.00 89 1007.9
20260506084018 13 188 0.0 3.2 0.00 0.00 0.00 89 1007.9
20260506083420 14 194 1.6 6.4 0.00 0.00 0.00 89 1008.0
20260506083049 14 188 1.6 6.4 0.00 0.00 0.00 89 1007.9
20260506081456 14 194 1.6 6.4 0.00 0.00 0.00 89 1007.9
20260506080454 14 293 0.0 1.6 0.00 0.00 0.00 88 1007.8
20260506073016 14 165 0.0 8.0 0.00 0.00 0.00 87 1007.9
20260506072009 15 167 1.6 14.5 0.00 0.00 0.00 86 1007.9
20260506071011 15 178 1.6 4.8 0.00 0.00 0.00 86 1007.9
20260506062008 15 173 0.0 3.2 0.00 0.00 0.00 85 1007.7
20260506061456 15 173 0.0 1.6 0.00 0.00 0.00 83 1007.7
20260506060447 15 173 0.0 1.6 0.00 0.00 0.00 82 1007.7
20260506051003 16 173 0.0 3.2 0.00 0.00 0.00 79 1008.2
20260506045003 16 173 1.6 4.8 0.00 0.00 0.00 78 1008.1
20260506044445 16 173 0.0 3.2 0.00 0.00 0.00 78 1008.3
20260506043003 16 173 1.6 9.7 0.00 0.00 0.00 77 1008.2
20260506041957 16 175 0.0 4.8 0.00 0.00 0.00 77 1008.2
20260506040957 16 175 0.0 3.2 0.00 0.00 0.00 77 1008.2
20260506035957 16 175 1.6 9.7 0.00 0.00 0.00 76 1008.2
20260506035928 16 175 1.6 9.7 0.00 0.00 0.00 76 1008.2
20260506033956 16 175 0.0 4.8 0.00 0.00 0.00 76 1008.2
20260506032958 16 302 0.0 4.8 0.00 0.00 0.00 75 1008.2
20260506031958 16 165 1.6 11.3 0.00 0.00 0.00 75 1008.1
20260506030957 16 188 1.6 4.8 0.00 0.00 0.00 74 1008.2
20260506025959 16 188 0.0 3.2 0.00 0.00 0.00 74 1008.2
20260506024953 17 188 0.0 4.8 0.00 0.00 0.00 74 1008.1
20260506023951 17 188 0.0 6.4 0.00 0.00 0.00 73 1008.1
20260506023439 17 188 0.0 8.0 0.00 0.00 0.00 73 1008.0
20260506021950 17 188 0.0 6.4 0.00 0.00 0.00 72 1008.0
20260506020949 17 188 1.6 4.8 0.00 0.00 0.00 72 1008.0
20260506015949 17 188 1.6 8.0 0.00 0.00 0.00 72 1008.0
20260506014947 17 193 0.0 3.2 0.00 0.00 0.00 72 1008.0
20260506013948 17 233 0.0 3.2 0.00 0.00 0.00 71 1007.9
20260506012947 17 217 1.6 4.8 0.00 0.00 0.00 71 1007.7
20260506011941 17 181 1.6 4.8 0.00 0.00 0.00 71 1007.7
20260506010942 17 181 0.0 4.8 0.00 0.00 0.00 71 1007.4
20260506005940 17 181 0.0 1.6 0.00 0.00 0.00 70 1007.4
20260506004940 18 181 0.0 3.2 0.00 0.00 0.00 70 1007.3
20260506003941 18 181 1.6 4.8 0.00 0.00 0.00 69 1007.1
20260506002940 18 181 0.0 8.0 0.00 0.00 0.00 69 1007.0
20260506001940 18 273 0.0 1.6 0.00 0.00 0.00 68 1006.8
20260506000940 19 273 0.0 4.8 0.00 0.00 0.00 67 1006.6
20260505235943 19 273 0.0 1.6 0.00 0.00 0.00 66 1006.5
20260505234939 20 273 0.0 4.8 0.00 0.00 0.00 66 1006.4
20260505233940 20 273 1.6 8.0 0.00 0.00 0.00 64 1006.3
20260505232939 20 190 1.6 8.0 0.00 0.00 0.00 63 1006.2
20260505231940 20 211 3.2 9.7 0.00 0.00 0.00 62 1006.1
20260505230938 21 267 3.2 8.0 0.00 0.00 0.00 62 1006.0
20260505225939 21 171 3.2 11.3 0.00 0.00 0.00 62 1005.9
20260505224937 21 90 4.8 16.1 0.00 0.00 0.00 61 1005.8
20260505223938 21 166 3.2 12.9 0.00 0.00 0.00 61 1005.5
20260505222936 21 180 3.2 14.5 0.00 0.00 0.00 61 1005.5
20260505221938 21 173 3.2 14.5 0.00 0.00 0.00 61 1005.2
20260505220936 21 171 3.2 16.1 0.00 0.00 0.00 61 1005.5
20260505220425 22 183 4.8 16.1 0.00 0.00 0.00 61 1005.8
20260505214936 22 229 3.2 14.5 0.00 0.00 0.00 59 1005.6
20260505214419 22 243 3.2 16.1 0.00 0.00 0.00 60 1005.7
20260505212937 22 173 3.2 16.1 0.00 0.00 0.00 59 1005.5
20260505211936 23 185 1.6 12.9 0.00 0.00 0.00 59 1005.6
20260505210937 23 190 3.2 8.0 0.00 0.00 0.00 58 1005.4
20260505205934 23 174 4.8 17.7 0.00 0.00 0.00 57 1005.5
20260505204933 23 242 3.2 17.7 0.00 0.00 0.00 56 1005.3
20260505203934 24 194 4.8 17.7 0.00 0.00 0.00 55 1005.3
20260505202934 25 180 3.2 9.7 0.00 0.00 0.00 54 1005.3